LEMUR-2-XIAOQING

Last updated on Wed Feb 14 2018 16:20:12 GMT+0000 (Coordinated Universal Time)

1 41871U 16062C 18044.90944205 .00001922 00000-0 92416-4 0 9996 2 41871 51.6522 17.4539 0003736 39.0174 321.1081 15.23841299 67784
UTC large
Height (km)
Speed (km/s)
/
Latitude / Longitude
Inclination (degrees)
Orbital Period (minutes)
Azimuth
Elevation
Range (km)
Doppler Factor

Next 0 passes for location: London (51.5072 / 0.1276)

Sorry there are no passes over London.